Location: Berlin
(42.3812°N, 71.6370°W)
Time: 12:22:48
(UTC+00:00)

Cosmos 2297 - Pass Details

Date: 15 November 2025
Orbit: 836 x 856 km, 71.0° (Epoch: 06 December)

Event Time Altitude Azimuth Distance (km) Brightness Sun altitude
Exits shadow 10:23:40 - 335° (NNW) 3,042 6.2 -13.8°
Reaches altitude 10° 10:25:11 10° 335° (NNW) 2,463 5.8 -13.5°
Maximum altitude 10:30:50 87° 249° (WSW) 844 3.7 -12.5°
Drops below altitude 10° 10:36:27 10° 159° (SSE) 2,440 6.6 -11.5°
Sets 10:38:52 0° 159° (SSE) 3,369 7.4 -11.0°
